Home   Weather   Dülmen   Past weeks

Flag for Germany Past Weather in Dülmen, North Rhine-Westphalia, Germany — Yesterday and Last 2 Weeks

36 °F


Feels Like: 36 °F
Forecast: 43 / 57 °F
Wind: No wind

Location: Muenster / Osnabrueck

Current Time: Oct 26, 2016 at 2:32:43 AM

Latest Report: Oct 26, 2016 at 1:50 AM

Visibility: 0 mi

Pressure: 30.33 "Hg

Humidity: 100%

Dew Point: 36 °F

Location of DülmenLocation

Past Weather in Dülmen — Graph


Dülmen Temperature Yesterday

Maximum temperature yesterday: 48 °F (at 12:50 PM)
Minimum temperature yesterday: 39 °F (at 9:50 PM)
Average temperature yesterday: 46 °F

High & Low Weather Summary for the Past Weeks

High64 °F (Oct 16, 2:50 PM)100% (Oct 11, 1:50 AM)30.33 "Hg (Oct 11, 1:50 AM)
Low32 °F (Oct 11, 2:50 AM)56% (Oct 16, 3:20 PM)29.68 "Hg (Oct 15, 1:20 AM)
Average47 °F89%30.01 "Hg
* Reported Oct 11 1:20 AM — Oct 26 1:20 AM, Dülmen, Weather by CustomWeather, © 2016

Note: Actual official high and low records may vary slightly from our data, if they occured in-between our weather recording intervals... More about our weather records


Dülmen Weather History for the Previous 24 Hours

Scroll right to see more
Time TempWeatherWind HumidityBarometerVisibility
1:20 AM
Wed, Oct 26
36 °FChilly.1 mph100%30.33 "Hg1 mi
12:50 AM36 °FChilly.1 mph100%30.33 "Hg1 mi
12:20 AM37 °FChilly.No wind100%30.33 "Hg1 mi
11:50 PM
Tue, Oct 25
39 °FChilly.2 mph100%30.33 "Hg1 mi
11:20 PM39 °FFog.2 mph100%30.33 "Hg1 mi
10:50 PM41 °FQuite cool.2 mph93%30.33 "Hg1 mi
10:20 PM41 °FFog.No wind93%30.33 "Hg0 mi
9:50 PM39 °FFog.No wind100%30.33 "Hg0 mi
9:20 PM43 °FFog.No wind93%30.30 "Hg0 mi
8:50 PM45 °FSleet. Overcast.1 mph93%30.30 "Hg1 mi
8:20 PM43 °FQuite cool.No wind100%30.30 "Hg1 mi
7:50 PM43 °FFog.No wind100%30.30 "Hg1 mi
7:20 PM45 °FQuite cool.No wind93%30.30 "Hg1 mi
6:50 PM45 °FFog.No wind93%30.27 "Hg0 mi
6:20 PM46 °FFog.No wind93%30.27 "Hg2 mi
5:50 PM48 °FFog.3 mph94%30.27 "Hg3 mi
5:20 PM48 °FFog.3 mph94%30.27 "Hg3 mi
4:50 PM48 °FFog.2 mph94%30.27 "Hg3 mi
4:20 PM48 °FFog.3 mph94%30.24 "Hg3 mi
3:50 PM48 °FFog.2 mph94%30.24 "Hg3 mi
3:20 PM48 °FPartly sunny.3 mph94%30.21 "Hg4 mi
2:50 PM48 °FPartly sunny.3 mph94%30.21 "Hg4 mi
2:20 PM48 °FPartly sunny.5 mph87%30.21 "Hg4 mi
1:50 PM48 °FPartly sunny.5 mph87%30.21 "Hg5 mi
1:20 PM48 °FPartly sunny.5 mph94%30.21 "Hg5 mi
12:50 PM48 °FPartly sunny.5 mph94%30.21 "Hg5 mi
12:20 PM46 °FPartly sunny.6 mph100%30.18 "Hg5 mi
11:50 AM46 °FPartly sunny.6 mph93%30.18 "Hg4 mi
11:20 AM46 °FPartly sunny.6 mph93%30.18 "Hg4 mi
10:50 AM46 °FLow clouds.5 mph93%30.18 "Hg4 mi
10:20 AM46 °FLow clouds.3 mph93%30.15 "Hg4 mi
9:50 AM46 °FFog.5 mph93%30.15 "Hg3 mi
9:20 AM46 °FFog.3 mph93%30.12 "Hg3 mi
8:50 AM46 °FPartly sunny.5 mph93%30.12 "Hg4 mi
8:20 AM46 °FPartly sunny.2 mph93%30.12 "Hg4 mi
7:50 AM46 °FPassing clouds.2 mph93%30.09 "HgN/A
7:20 AM46 °FPassing clouds.2 mph93%30.07 "HgN/A
6:50 AM46 °FDrizzle. Fog.3 mph93%30.07 "Hg3 mi
6:20 AM46 °FDrizzle. Fog.3 mph93%30.07 "Hg2 mi
5:50 AM46 °FDrizzle. Fog.2 mph93%30.07 "Hg2 mi
5:20 AM46 °FCool.3 mph93%30.04 "HgN/A
4:50 AM46 °FDrizzle. Fog.2 mph93%30.04 "Hg1 mi
4:20 AM46 °FDrizzle. Fog.3 mph93%30.04 "Hg1 mi
3:50 AM46 °FDrizzle. Fog.3 mph93%30.01 "Hg1 mi
3:20 AM46 °FDrizzle. Fog.2 mph93%30.01 "Hg1 mi
2:50 AM46 °FDrizzle. Fog.1 mph93%30.01 "Hg2 mi
2:20 AM46 °FDrizzle. Fog.3 mph93%30.01 "Hg2 mi
Weather by CustomWeather, © 2016

See weather overviewHow to use our weather pages